[[{"header":{"parameterUnit":"m.s-1","parameterCategory":2,"la1":30.2991,"la2":30.254,"lo1":-89.0895,"lo2":-89.0444,"dy":0.0017,"dx":0.0017,"nx":28,"ny":28,"refTime":"2024-02-03T03:00:00:Z","depth":"0","parameterNumber":2,"parameterNumberName":"U-component_of_CURRENTS"},"data":[0,0,0,0,0,0,0,0,0,0,0,0,0,0,0,0,0,0,0,0,0,0,0,0,0,0,0,0,0,0,0,0,0,0,0,0,0,0,0,0,0,0,0,0,0,0,0,0,0,0,0,0,0,0,0,0,0,0,0.337,0.337,0,0.3346,0.3346,0.3345,0.3261,0.3259,0.3257,0.3255,0.3173,0.3172,0.3172,0,0,0,0,0,0,0,0,0,0,0,0,0,0.3374,0.3374,0.337,0.337,0.337,0.3346,0.3346,0.3345,0.3261,0.3259,0.3257,0.3255,0.3173,0.3172,0.3172,0,0,0,0,0,0,0,0,0,0,0,0,0,0.3362,0.3374,0.337,0.3326,0.3322,0.3346,0.3346,0.3345,0.3262,0.3259,0.3256,0.3254,0.3173,0.3172,0.3172,0.3221,0,0,0.3169,0.3169,0,0,0,0,0,0,0,0,0.3363,0.3362,0.3333,0.3329,0.3324,0.3305,0.3317,0.3301,0.3262,0.3283,0.3255,0.3252,0.3214,0.321,0.3211,0.3217,0.3214,0.3169,0.3169,0.3168,0.3168,0,0,0,0,0,0,0,0.3364,0.3363,0.336,0.3333,0.3328,0.3317,0.3312,0.3314,0.3262,0.3281,0.3275,0.3275,0.3211,0.3212,0.3208,0.3213,0.3169,0.3169,0.3168,0.3168,0.3314,0.3318,0,0,0,0,0,0,0.3371,0.3364,0.336,0.3359,0.3339,0.332,0.3314,0.3313,0.3263,0.3254,0.3278,0.3271,0.3214,0.3209,0.3205,0.3261,0.3168,0.3168,0.3167,0.331,0.3315,0.332,0,0,0,0,0,0,0.3371,0.3371,0.3361,0.3361,0.336,0.3322,0.3322,0.3314,0.3314,0.3261,0.325,0.3285,0.3212,0.3206,0.3215,0.3256,0.3167,0.3167,0.3305,0.3312,0.3318,0.3372,0,0,0,0,0,0,0.3371,0.3371,0.3378,0.3362,0.336,0.3384,0.3324,0.3315,0.3318,0.331,0.3265,0.3254,0.3209,0.3216,0.3214,0.3253,0.3166,0.3299,0.3308,0.3316,0.3365,0.338,0.3392,0,0,0,0,0,0.3371,0.3382,0.3378,0.3378,0.3369,0.3386,0.3385,0.3347,0.3322,0.3335,0.3306,0.3256,0.3268,0.3218,0.3215,0.3255,0.3295,0.3305,0.3315,0.3359,0.3377,0.3392,0,0,0,0,0,0,0.3384,0.3375,0.3369,0.3377,0.3389,0.3372,0.3377,0.3366,0.3357,0.3342,0.3291,0.328,0.3315,0.3297,0.3244,0.3334,0.3283,0.3293,0.3318,0.3335,0.3349,0.3351,0.3165,0,0,0,0,0,0.3396,0.3401,0.3402,0.3412,0.3419,0.3409,0.3412,0.3395,0.3384,0.3376,0.3345,0.3338,0.3361,0.3351,0.3362,0.3394,0.3399,0.3433,0.3447,0.3458,0.3466,0.3534,0.3553,0.3352,0.3352,0.3352,0,0,0.34,0.3401,0.3401,0.3417,0.3417,0.3435,0.3403,0.3415,0.343,0.3372,0.3377,0.3384,0.3388,0.3424,0.3439,0.3401,0.3521,0.347,0.3478,0.3481,0.3546,0.3565,0.3582,0.3359,0.3358,0.3357,0,0,0.3414,0.342,0.3428,0.3446,0.346,0.3461,0.3474,0.3471,0.3468,0.3492,0.347,0.3509,0.3508,0.3527,0.3538,0.365,0.3602,0.3657,0.3702,0.3768,0.3784,0.3797,0.382,0.3836,0.3648,0.3648,0.3648,0,0.3417,0.3429,0.3438,0.3459,0.3465,0.3479,0.3493,0.3515,0.3515,0.3514,0.35,0.3552,0.3568,0.3623,0.3673,0.3677,0.3683,0.3621,0.378,0.3794,0.3808,0.3828,0.3844,0.3652,0.3652,0.3651,0.3651,0,0.3438,0.3453,0.3465,0.3489,0.3509,0.3527,0.3554,0.3573,0.3576,0.3582,0.3633,0.3667,0.3687,0.3728,0.3733,0.3841,0.3805,0.3794,0.372,0.383,0.3845,0.3861,0.3658,0.3656,0.3655,0.3654,0,0,0.3414,0.3464,0.3466,0.3478,0.352,0.3533,0.3576,0.3604,0.3615,0.3653,0.3671,0.3774,0.3779,0.3801,0.3824,0.3901,0.4024,0.3889,0.3891,0.388,0.4134,0.4067,0.4077,0.4023,0.4026,0.4029,0.4101,0,0.342,0.3453,0.3477,0.3509,0.3525,0.3552,0.3585,0.3617,0.3641,0.3669,0.3735,0.3771,0.381,0.3825,0.3917,0.3995,0.407,0.4004,0.4058,0.406,0.3961,0.4096,0.4,0.4054,0.4116,0.4119,0.4121,0,0.342,0.3443,0.3464,0.3502,0.3509,0.3532,0.3559,0.3593,0.3649,0.3665,0.3715,0.375,0.3871,0.3895,0.4071,0.4015,0.4096,0.4158,0.4161,0.409,0.4024,0.3962,0.4079,0.3948,0.4144,0.4143,0.4141,0,0.3382,0.3429,0.3438,0.3454,0.3504,0.3508,0.3534,0.3578,0.3591,0.3659,0.3662,0.3783,0.3832,0.3971,0.4101,0.4093,0.4276,0.427,0.428,0.4273,0.4201,0.4183,0.4172,0.4418,0.4418,0.4418,0.4418,0,0.3368,0.3377,0.3419,0.3426,0.3429,0.3475,0.3478,0.3516,0.356,0.357,0.3652,0.3683,0.3861,0.3964,0.41,0.4225,0.4271,0.4319,0.4309,0.4218,0.4201,0.4089,0.4056,0.442,0.442,0.4419,0.4419,0,0.3319,0.3353,0.3363,0.3402,0.3409,0.3408,0.3432,0.343,0.3482,0.3498,0.3516,0.3625,0.3759,0.3905,0.4122,0.4195,0.4236,0.437,0.4226,0.42,0.4082,0.4057,0.3922,0.3841,0.4405,0.4404,0.4403,0,0.3297,0.3293,0.3321,0.3313,0.3325,0.333,0.3321,0.3378,0.3378,0.3457,0.3457,0.3579,0.3646,0.3893,0.4076,0.4261,0.4176,0.4256,0.4257,0.4085,0.4052,0.3879,0.3809,0.4182,0.4179,0.4177,0.4176,0,0.3234,0.3238,0.3243,0.3227,0.3216,0.32,0.3203,0.3193,0.3253,0.3268,0.3306,0.3371,0.3608,0.3752,0.3981,0.4108,0.4054,0.4218,0.4101,0.3941,0.3696,0.3606,0.4087,0.4157,0.4159,0.416,0.4161,0.4162,0.3167,0.3148,0.3141,0.3117,0.3101,0.305,0.2992,0.3009,0.2989,0.2996,0.3143,0.3204,0.3493,0.3809,0.3879,0.3936,0.3932,0.3908,0.3911,0.3762,0.3626,0.4042,0.4059,0.4061,0.4062,0.4063,0.4063,0,0.3056,0.3045,0.3026,0.2972,0.29,0.2936,0.2884,0.2807,0.2738,0.2843,0.2879,0.3117,0.3291,0.3513,0.3723,0.3658,0.3533,0.3568,0.3325,0.3294,0.3731,0.3663,0.352,0.352,0.352,0.352,0.352,0.352,0.2993,0.2935,0.2925,0.2779,0.2736,0.2597,0.254,0.2466,0.2495,0.2509,0.2609,0.2768,0.3067,0.3361,0.3404,0.337,0.3152,0.3016,0.2993,0.3326,0.3357,0.3386,0.331,0.3096,0.3096,0.243,0.2426,0.2422]},{"header":{"parameterUnit":"m.s-1","parameterCategory":2,"la1":30.2991,"la2":30.254,"lo1":-89.0895,"lo2":-89.0444,"dy":0.0017,"dx":0.0017,"nx":28,"ny":28,"refTime":"2024-02-03T03:00:00:Z","depth":"0","parameterNumber":3,"parameterNumberName":"V-component_of_CURRENTS"},"data":[0,0,0,0,0,0,0,0,0,0,0,0,0,0,0,0,0,0,0,0,0,0,0,0,0,0,0,0,0,0,0,0,0,0,0,0,0,0,0,0,0,0,0,0,0,0,0,0,0,0,0,0,0,0,0,0,0,0,0.0515,0.0514,0,0.0396,0.0394,0.0393,0.0274,0.0273,0.0272,0.0271,0.014,0.0137,0.0135,0,0,0,0,0,0,0,0,0,0,0,0,0,0.0591,0.059,0.0515,0.0514,0.0513,0.0396,0.0394,0.0392,0.0275,0.0273,0.0272,0.0271,0.0141,0.0138,0.0135,0,0,0,0,0,0,0,0,0,0,0,0,0,0.0519,0.059,0.0515,0.0444,0.0437,0.0397,0.0394,0.0392,0.0275,0.0273,0.0272,0.027,0.0142,0.0138,0.0134,0.0144,0,0,0.0123,0.0121,0,0,0,0,0,0,0,0,0.0523,0.0516,0.0455,0.0449,0.0441,0.0353,0.0373,0.031,0.0275,0.0331,0.0271,0.0269,0.0215,0.0205,0.0179,0.0138,0.0133,0.0123,0.012,0.0119,0.0118,0,0,0,0,0,0,0,0.0528,0.052,0.0463,0.0455,0.0446,0.0402,0.0389,0.036,0.0279,0.0326,0.0318,0.0314,0.0209,0.0183,0.0175,0.0131,0.0123,0.012,0.0117,0.0116,0.0182,0.0186,0,0,0,0,0,0,0.0558,0.0525,0.0466,0.046,0.0485,0.0402,0.0388,0.0379,0.0279,0.0264,0.0315,0.0309,0.019,0.0179,0.017,0.0223,0.0119,0.0115,0.0113,0.0178,0.0183,0.0187,0,0,0,0,0,0,0.056,0.0554,0.0471,0.0494,0.0481,0.0404,0.0393,0.0377,0.0354,0.0273,0.0256,0.031,0.0188,0.0175,0.0162,0.0215,0.0114,0.011,0.0174,0.018,0.0185,0.0298,0,0,0,0,0,0,0.0562,0.0555,0.0552,0.0496,0.0481,0.0455,0.0395,0.0376,0.0356,0.0346,0.0263,0.0248,0.0186,0.0168,0.0159,0.0208,0.0107,0.0168,0.0176,0.0183,0.029,0.0308,0.0323,0,0,0,0,0,0.0565,0.0554,0.0552,0.0545,0.0481,0.0456,0.0444,0.038,0.0358,0.0352,0.0309,0.0251,0.021,0.0167,0.0155,0.0205,0.0165,0.0174,0.0183,0.0282,0.0304,0.0323,0,0,0,0,0,0,0.056,0.0541,0.0537,0.0514,0.05,0.0438,0.0418,0.0398,0.0358,0.0348,0.0277,0.026,0.0279,0.0239,0.0194,0.0256,0.0189,0.0196,0.0269,0.0289,0.0305,0.0339,0.0104,0,0,0,0,0,0.0572,0.057,0.0548,0.0533,0.053,0.0488,0.047,0.044,0.0402,0.0381,0.0337,0.031,0.0309,0.0293,0.0275,0.0291,0.0277,0.0329,0.0346,0.036,0.0386,0.0457,0.0482,0.0217,0.0217,0.0217,0,0,0.0565,0.0556,0.0551,0.0536,0.0512,0.0517,0.047,0.0452,0.0463,0.0378,0.0375,0.036,0.033,0.0352,0.0359,0.0318,0.0418,0.0371,0.0382,0.0401,0.0469,0.0495,0.0518,0.0223,0.0222,0.0221,0,0,0.0564,0.0549,0.0559,0.0557,0.0548,0.0532,0.0542,0.0511,0.0501,0.0508,0.0475,0.0506,0.0461,0.0476,0.0473,0.0582,0.051,0.0575,0.0669,0.0738,0.076,0.078,0.0739,0.0754,0.0576,0.0576,0.0576,0,0.0562,0.0571,0.0556,0.0569,0.0574,0.0553,0.0573,0.0566,0.054,0.0566,0.0522,0.0564,0.0534,0.0609,0.0645,0.062,0.0604,0.0582,0.0758,0.0777,0.0795,0.0749,0.0764,0.0583,0.0582,0.0581,0.0581,0,0.0581,0.0588,0.059,0.0615,0.0619,0.0628,0.0636,0.0654,0.0653,0.0662,0.0735,0.0718,0.0749,0.0761,0.0722,0.0853,0.0778,0.0772,0.0699,0.0828,0.0771,0.0785,0.0592,0.059,0.0588,0.0586,0,0,0.0591,0.0605,0.0611,0.0636,0.0649,0.0658,0.0702,0.0752,0.0809,0.0814,0.0901,0.0933,0.0945,0.095,0.0937,0.0999,0.1089,0.094,0.094,0.0882,0.1162,0.1085,0.109,0.1108,0.1113,0.1117,0.1049,0,0.0622,0.0656,0.0661,0.0708,0.0732,0.0744,0.0793,0.0839,0.0876,0.0954,0.0998,0.1062,0.101,0.1041,0.1103,0.1121,0.114,0.1103,0.1062,0.1059,0.0964,0.1112,0.1098,0.1039,0.1062,0.1064,0.1065,0,0.0659,0.0678,0.0722,0.0778,0.0793,0.0822,0.0918,0.096,0.1065,0.11,0.1183,0.1204,0.1311,0.1246,0.1322,0.1295,0.1238,0.1225,0.1222,0.1131,0.1012,0.0928,0.1061,0.084,0.1085,0.1084,0.1082,0,0.0691,0.0733,0.0772,0.0785,0.0838,0.0879,0.0919,0.1012,0.1086,0.1207,0.1282,0.1375,0.1443,0.1446,0.1409,0.1374,0.1465,0.1406,0.1258,0.1245,0.122,0.12,0.1133,0.1443,0.1443,0.1443,0.1444,0,0.0731,0.0766,0.0789,0.0809,0.0887,0.0912,0.1024,0.1077,0.1199,0.1329,0.1363,0.1487,0.151,0.1551,0.1475,0.1422,0.1507,0.1309,0.1267,0.1251,0.1236,0.1028,0.0902,0.1441,0.1441,0.1442,0.1442,0,0.076,0.077,0.082,0.0873,0.0899,0.0954,0.1071,0.1165,0.1257,0.1433,0.1482,0.1607,0.1671,0.1626,0.1636,0.1508,0.1338,0.1386,0.131,0.1263,0.0909,0.079,0.0759,0.0639,0.1223,0.1222,0.122,0,0.0776,0.0798,0.0857,0.0896,0.092,0.1006,0.1084,0.1187,0.1302,0.1518,0.1622,0.1725,0.1847,0.1788,0.1617,0.1455,0.128,0.1255,0.1212,0.0923,0.076,0.0737,0.0636,0.1181,0.1179,0.1178,0.1177,0,0.0806,0.0821,0.0859,0.0936,0.1008,0.1115,0.1235,0.1338,0.1499,0.1653,0.1875,0.1991,0.1941,0.1853,0.1596,0.1445,0.1104,0.1218,0.0997,0.0805,0.0707,0.0558,0.1095,0.1166,0.1167,0.1168,0.1168,0.1169,0.0827,0.0859,0.0908,0.0992,0.1084,0.1233,0.1349,0.1503,0.1708,0.1979,0.2056,0.2266,0.207,0.1768,0.1486,0.0948,0.0991,0.0782,0.0674,0.0688,0.0563,0.1018,0.1002,0.1003,0.1003,0.1003,0.1003,0,0.0851,0.0894,0.0967,0.108,0.1203,0.1252,0.1465,0.161,0.1864,0.2119,0.2321,0.2396,0.201,0.1605,0.0917,0.0502,0.0385,0.0271,0.0235,0.0165,0.064,0.0625,0.0435,0.0435,0.0435,0.0436,0.0436,0.0436,0.0865,0.0931,0.0977,0.1171,0.1268,0.1471,0.161,0.1823,0.204,0.238,0.2575,0.2724,0.2483,0.1209,0.0281,0.0027,-0.0283,-0.0288,-0.0458,-0.0169,-0.0129,-0.0091,-0.0133,-0.0479,-0.048,-0.0858,-0.0863,-0.0866]}],[{"header":{"parameterUnit":"m.s-1","parameterCategory":2,"la1":30.2991,"la2":30.254,"lo1":-89.0895,"lo2":-89.0444,"dy":0.0017,"dx":0.0017,"nx":28,"ny":28,"refTime":"2024-02-03T03:00:00:Z","depth":"2","parameterNumber":2,"parameterNumberName":"U-component_of_CURRENTS"},"data":[0,0,0,0,0,0,0,0,0,0,0,0,0,0,0,0,0,0,0,0,0,0,0,0,0,0,0,0,0,0,0,0,0,0,0,0,0,0,0,0,0,0,0,0,0,0,0,0,0,0,0,0,0,0,0,0,0,0,0.155,0.1551,0,0.1611,0.1611,0.1612,0.1684,0.1686,0.1688,0.1689,0.1818,0.1819,0.1821,0,0,0,0,0,0,0,0,0,0,0,0,0,0.1529,0.1529,0.155,0.1551,0.1553,0.1611,0.1611,0.1612,0.1684,0.1686,0.1688,0.169,0.1817,0.1819,0.1821,0,0,0,0,0,0,0,0,0,0,0,0,0,0.1552,0.1528,0.155,0.1601,0.1607,0.1611,0.1611,0.1612,0.1683,0.1686,0.1689,0.1691,0.1816,0.1819,0.1821,0.1785,0,0,0.183,0.1831,0,0,0,0,0,0,0,0,0.1551,0.1552,0.1592,0.1598,0.1604,0.1649,0.1652,0.1675,0.1683,0.1647,0.1689,0.1692,0.177,0.1777,0.1771,0.1791,0.1796,0.183,0.1831,0.1833,0.1833,0,0,0,0,0,0,0,0.1549,0.155,0.1567,0.1594,0.1601,0.1633,0.1638,0.1656,0.1688,0.165,0.1657,0.1674,0.1773,0.1768,0.1775,0.1798,0.183,0.1832,0.1834,0.1835,0.1952,0.1953,0,0,0,0,0,0,0.1551,0.1548,0.1565,0.157,0.1592,0.1632,0.1637,0.1626,0.1687,0.17,0.1672,0.1678,0.1762,0.1772,0.178,0.1879,0.1833,0.1835,0.1837,0.195,0.1952,0.1954,0,0,0,0,0,0,0.1549,0.155,0.1563,0.1568,0.1573,0.163,0.1617,0.1626,0.1656,0.1705,0.1718,0.1698,0.1765,0.1776,0.1846,0.1879,0.1836,0.1839,0.1949,0.1951,0.1953,0.1988,0,0,0,0,0,0,0.1548,0.1548,0.1552,0.1567,0.1573,0.161,0.1615,0.1626,0.1665,0.1673,0.1731,0.1743,0.1768,0.1842,0.1849,0.1882,0.1841,0.1947,0.195,0.1952,0.1985,0.1991,0.1996,0,0,0,0,0,0.1546,0.154,0.1551,0.1555,0.1571,0.1613,0.1619,0.1664,0.1664,0.1695,0.1735,0.1743,0.1865,0.1846,0.1853,0.1888,0.1945,0.1949,0.1952,0.1982,0.199,0.1996,0,0,0,0,0,0,0.152,0.1548,0.156,0.1559,0.1606,0.1629,0.1652,0.1671,0.1717,0.173,0.1759,0.1776,0.1851,0.186,0.1837,0.1931,0.1907,0.1912,0.1927,0.1935,0.194,0.195,0.1843,0,0,0,0,0,0.1516,0.1526,0.1564,0.1566,0.1587,0.1617,0.1639,0.1674,0.1713,0.1735,0.1765,0.1807,0.1859,0.1893,0.1933,0.1974,0.1997,0.2003,0.2008,0.2013,0.2027,0.2096,0.2109,0.1965,0.1965,0.1965,0,0,0.1507,0.1523,0.153,0.1565,0.1589,0.1627,0.1636,0.1683,0.172,0.174,0.1788,0.1829,0.1877,0.194,0.1973,0.1959,0.2065,0.2018,0.2021,0.2033,0.2101,0.2115,0.2127,0.1967,0.1967,0.1966,0,0,0.1505,0.1506,0.1529,0.1565,0.1625,0.1648,0.1668,0.1708,0.1739,0.179,0.1824,0.1888,0.1936,0.1991,0.2021,0.2077,0.2095,0.2089,0.2126,0.2192,0.2205,0.2216,0.2255,0.2269,0.209,0.209,0.209,0,0.1507,0.1522,0.1547,0.158,0.1615,0.1657,0.17,0.1728,0.1789,0.1828,0.1821,0.1932,0.1961,0.2065,0.2088,0.2091,0.2126,0.2094,0.22,0.2212,0.2223,0.226,0.2275,0.2092,0.2092,0.2092,0.2091,0,0.1533,0.1551,0.1563,0.1617,0.1657,0.1701,0.1751,0.1792,0.1819,0.1863,0.1964,0.2005,0.2086,0.2095,0.2107,0.2211,0.2208,0.22,0.2181,0.224,0.2274,0.229,0.2095,0.2094,0.2094,0.2093,0,0,0.1532,0.1579,0.1591,0.1618,0.1685,0.1721,0.1777,0.1863,0.1928,0.1972,0.2056,0.2129,0.217,0.2208,0.2238,0.228,0.237,0.2275,0.2278,0.231,0.2512,0.2379,0.2383,0.2389,0.2392,0.2395,0.2501,0,0.1561,0.1616,0.1643,0.1703,0.1729,0.1783,0.1842,0.1923,0.1988,0.2075,0.2134,0.2226,0.221,0.2265,0.2312,0.2371,0.2416,0.2341,0.2453,0.2456,0.2329,0.2398,0.2222,0.2291,0.2516,0.2518,0.252,0,0.1584,0.1619,0.1679,0.1745,0.177,0.1823,0.1939,0.2008,0.2135,0.2189,0.2289,0.2338,0.2438,0.2393,0.2525,0.2486,0.2508,0.2523,0.2528,0.2405,0.2352,0.2272,0.2311,0.2546,0.2544,0.2542,0.2541,0,0.1567,0.1641,0.1689,0.1712,0.1801,0.1854,0.1927,0.2054,0.2127,0.2279,0.2336,0.247,0.2534,0.2597,0.2623,0.2599,0.2734,0.2706,0.2605,0.2595,0.2466,0.2439,0.279,0.279,0.279,0.2789,0.2789,0,0.1569,0.1608,0.1689,0.1713,0.1807,0.187,0.1994,0.2086,0.2216,0.2327,0.2409,0.2491,0.2589,0.266,0.2678,0.269,0.279,0.2629,0.2623,0.2469,0.2442,0.2677,0.2662,0.2793,0.2792,0.2792,0.2791,0,0.153,0.1583,0.1639,0.1747,0.179,0.1865,0.201,0.2089,0.2222,0.2359,0.2403,0.2536,0.2637,0.2692,0.2798,0.2744,0.2773,0.2743,0.2535,0.25,0.2578,0.2564,0.2663,0.266,0.2657,0.2654,0.2652,0,0.1529,0.1542,0.1652,0.1695,0.1749,0.1861,0.1934,0.2085,0.2168,0.2378,0.2429,0.2558,0.2602,0.2678,0.2669,0.2676,0.2733,0.2474,0.2377,0.2585,0.2571,0.2561,0.2552,0.2232,0.2227,0.2222,0.2219,0,0.1513,0.1542,0.1576,0.1654,0.1733,0.1823,0.1943,0.1994,0.2183,0.2251,0.237,0.2411,0.252,0.2439,0.2431,0.2407,0.2456,0.2378,0.2705,0.2261,0.2179,0.2164,0.2169,0.2179,0.2183,0.2186,0.2188,0.219,0.15,0.1522,0.1552,0.1615,0.1703,0.1772,0.1813,0.1888,0.196,0.2062,0.2193,0.2187,0.2259,0.2132,0.2091,0.2076,0.2223,0.2116,0.2131,0.215,0.2051,0.1965,0.1907,0.1909,0.1911,0.1913,0.1915,0,0.1483,0.1496,0.1523,0.1599,0.163,0.1719,0.1808,0.1773,0.1787,0.1876,0.191,0.1747,0.1692,0.1789,0.1709,0.1683,0.1684,0.1612,0.1619,0.1659,0.1695,0.1573,0.1303,0.13,0.1298,0.1297,0,0,0.1476,0.1464,0.1457,0.1491,0.1564,0.1602,0.1633,0.1546,0.1552,0.1466,0.1472,0.1582,0.1695,0.1458,0.1445,0.1369,0.1495,0.1311,0.1806,0.1853,0.1886,0.1994,0.1852,0,0,0,0,0]},{"header":{"parameterUnit":"m.s-1","parameterCategory":2,"la1":30.2991,"la2":30.254,"lo1":-89.0895,"lo2":-89.0444,"dy":0.0017,"dx":0.0017,"nx":28,"ny":28,"refTime":"2024-02-03T03:00:00:Z","depth":"2","parameterNumber":3,"parameterNumberName":"V-component_of_CURRENTS"},"data":[0,0,0,0,0,0,0,0,0,0,0,0,0,0,0,0,0,0,0,0,0,0,0,0,0,0,0,0,0,0,0,0,0,0,0,0,0,0,0,0,0,0,0,0,0,0,0,0,0,0,0,0,0,0,0,0,0,0,-0.0111,-0.0111,0,-0.014,-0.014,-0.014,-0.0165,-0.0165,-0.0166,-0.0167,-0.0375,-0.0379,-0.0384,0,0,0,0,0,0,0,0,0,0,0,0,0,-0.0113,-0.0112,-0.0111,-0.0111,-0.0112,-0.014,-0.014,-0.014,-0.0165,-0.0165,-0.0166,-0.0167,-0.0373,-0.0379,-0.0385,0,0,0,0,0,0,0,0,0,0,0,0,0,-0.0121,-0.0112,-0.011,-0.013,-0.0132,-0.014,-0.014,-0.014,-0.0165,-0.0165,-0.0166,-0.0167,-0.0371,-0.0378,-0.0386,-0.0414,0,0,-0.0409,-0.0412,0,0,0,0,0,0,0,0,-0.012,-0.012,-0.0127,-0.0129,-0.0131,-0.0153,-0.0217,-0.0242,-0.0164,-0.0149,-0.0167,-0.0168,-0.0319,-0.033,-0.0326,-0.0424,-0.0433,-0.0409,-0.0414,-0.0417,-0.0419,0,0,0,0,0,0,0,-0.0119,-0.0119,-0.0119,-0.0127,-0.013,-0.015,-0.0152,-0.0221,-0.0229,-0.015,-0.0153,-0.0161,-0.0321,-0.0319,-0.0332,-0.0436,-0.0409,-0.0416,-0.042,-0.0423,-0.062,-0.062,0,0,0,0,0,0,-0.0119,-0.0118,-0.0118,-0.012,-0.0132,-0.015,-0.0151,-0.0142,-0.0225,-0.0237,-0.0161,-0.0162,-0.0306,-0.0323,-0.034,-0.0418,-0.0417,-0.0424,-0.0428,-0.0619,-0.062,-0.0621,0,0,0,0,0,0,-0.0119,-0.0118,-0.0117,-0.0124,-0.0125,-0.0149,-0.0139,-0.0142,-0.0157,-0.0231,-0.0247,-0.0173,-0.0307,-0.0329,-0.0405,-0.0426,-0.0427,-0.0434,-0.0618,-0.0619,-0.062,-0.0551,0,0,0,0,0,0,-0.0119,-0.0117,-0.0115,-0.0123,-0.0125,-0.013,-0.0138,-0.0142,-0.0161,-0.0164,-0.0248,-0.0266,-0.031,-0.0393,-0.0412,-0.0436,-0.044,-0.0617,-0.0619,-0.062,-0.0552,-0.055,-0.0547,0,0,0,0,0,-0.0118,-0.0101,-0.0114,-0.0115,-0.0118,-0.0131,-0.0134,-0.0152,-0.0161,-0.0167,-0.0218,-0.0264,-0.0416,-0.0399,-0.0422,-0.0448,-0.0617,-0.0618,-0.062,-0.0554,-0.055,-0.0547,0,0,0,0,0,0,-0.0092,-0.0103,-0.0117,-0.0102,-0.0125,-0.0137,-0.0137,-0.0157,-0.0196,-0.0205,-0.0272,-0.0294,-0.037,-0.0419,-0.0399,-0.0509,-0.0526,-0.0532,-0.0468,-0.0465,-0.0463,-0.044,-0.0446,0,0,0,0,0,-0.0088,-0.0082,-0.0104,-0.0095,-0.0101,-0.0124,-0.0133,-0.0151,-0.0184,-0.02,-0.0252,-0.0319,-0.039,-0.0434,-0.0497,-0.0559,-0.0572,-0.0592,-0.0589,-0.0586,-0.0584,-0.0605,-0.0603,-0.0626,-0.0626,-0.0626,0,0,-0.0078,-0.0082,-0.008,-0.0091,-0.0102,-0.0103,-0.013,-0.0143,-0.0155,-0.0223,-0.0251,-0.0317,-0.0405,-0.0465,-0.0505,-0.0512,-0.0585,-0.0589,-0.0585,-0.0585,-0.0606,-0.0604,-0.0601,-0.0627,-0.0627,-0.0627,0,0,-0.0051,-0.0055,-0.0045,-0.0056,-0.008,-0.0094,-0.0103,-0.0125,-0.0147,-0.019,-0.0242,-0.0308,-0.0407,-0.046,-0.0508,-0.0534,-0.057,-0.0569,-0.0541,-0.056,-0.0558,-0.0556,-0.0548,-0.0546,-0.0567,-0.0567,-0.0567,0,-0.0045,-0.0027,-0.0048,-0.0039,-0.0042,-0.0089,-0.0082,-0.0108,-0.0155,-0.0181,-0.0198,-0.0327,-0.04,-0.048,-0.0488,-0.0528,-0.0534,-0.0541,-0.0553,-0.0552,-0.0551,-0.0544,-0.0542,-0.0564,-0.0564,-0.0564,-0.0565,0,-0.0016,-0.0001,0.0008,0.0005,-0.0004,-0.0006,-0.0043,-0.0066,-0.0102,-0.0139,-0.022,-0.0298,-0.0375,-0.0415,-0.0466,-0.0511,-0.0515,-0.0543,-0.0551,-0.0544,-0.0537,-0.0537,-0.0559,-0.056,-0.0561,-0.0562,0,0,-0.0002,0.0021,0.0021,0.0034,0.0019,0.0015,-0.0004,-0.0045,-0.0066,-0.0128,-0.015,-0.0276,-0.032,-0.0375,-0.0444,-0.047,-0.0467,-0.0502,-0.0504,-0.0474,-0.0488,-0.0472,-0.047,-0.0494,-0.0495,-0.0495,-0.0476,0,0.0021,0.0056,0.0051,0.0078,0.0103,0.0064,0.0046,-0.0001,-0.0044,-0.0075,-0.0172,-0.0228,-0.0306,-0.0339,-0.0381,-0.0446,-0.0468,-0.0468,-0.0517,-0.0518,-0.0489,-0.047,-0.0457,-0.0438,-0.0476,-0.0476,-0.0476,0,0.0055,0.0075,0.0108,0.0126,0.0126,0.0118,0.009,0.0068,0.0,-0.003,-0.0093,-0.0159,-0.0226,-0.0277,-0.0372,-0.0367,-0.0426,-0.0469,-0.047,-0.0481,-0.0502,-0.0459,-0.0436,-0.0476,-0.0476,-0.0476,-0.0476,0,0.0093,0.0121,0.0147,0.0155,0.0155,0.0141,0.0123,0.0069,0.0066,0.001,0.0018,-0.009,-0.0106,-0.0206,-0.0304,-0.0338,-0.0373,-0.0431,-0.047,-0.0468,-0.0481,-0.048,-0.049,-0.049,-0.049,-0.049,-0.049,0,0.0137,0.0158,0.0161,0.0177,0.0188,0.0171,0.017,0.0136,0.0121,0.0148,0.0043,0.0068,-0.0087,-0.0131,-0.0252,-0.0336,-0.0332,-0.0454,-0.0465,-0.0455,-0.0452,-0.0515,-0.0518,-0.049,-0.049,-0.049,-0.049,0,0.0182,0.0184,0.0221,0.0216,0.0215,0.0218,0.0228,0.0245,0.021,0.0264,0.0262,0.0207,0.0153,0.0009,-0.0116,-0.0238,-0.0342,-0.0377,-0.0338,-0.0345,-0.0439,-0.044,-0.0429,-0.0428,-0.0428,-0.0427,-0.0427,0,0.0194,0.0226,0.0255,0.0281,0.0276,0.0287,0.0314,0.0293,0.0341,0.0367,0.042,0.0376,0.0367,0.019,-0.0023,-0.021,-0.0267,-0.0326,-0.0412,-0.0422,-0.0434,-0.0435,-0.0436,-0.0392,-0.0391,-0.039,-0.039,0,0.0228,0.0243,0.0283,0.0351,0.0384,0.0433,0.0472,0.0531,0.0547,0.0603,0.0693,0.0683,0.05,0.0312,0.0035,-0.0106,-0.0304,-0.0322,-0.0333,-0.041,-0.0386,-0.0398,-0.0401,-0.0385,-0.0386,-0.0386,-0.0386,-0.0386,0.025,0.0289,0.036,0.0427,0.0479,0.0571,0.0642,0.0728,0.083,0.0916,0.0893,0.0865,0.0613,0.0254,0.0036,-0.0217,-0.0244,-0.0365,-0.0367,-0.037,-0.0369,-0.0347,-0.0336,-0.0336,-0.0336,-0.0336,-0.0336,0,0.0292,0.0349,0.0431,0.0517,0.0611,0.0618,0.0752,0.0841,0.1,0.1051,0.1095,0.085,0.0606,0.0326,-0.0047,-0.0274,-0.0313,-0.034,-0.0354,-0.0357,-0.036,-0.0361,-0.0325,-0.0325,-0.0325,-0.0325,0,0,0.0316,0.0413,0.0471,0.0623,0.0687,0.0817,0.0909,0.1039,0.1103,0.1173,0.1131,0.1016,0.0662,0.04,0.0094,-0.0109,-0.0175,-0.0146,-0.0137,-0.0121,-0.0121,-0.0363,-0.0365,0,0,0,0,0]}],[{"header":{"parameterUnit":"m.s-1","parameterCategory":2,"la1":30.2991,"la2":30.254,"lo1":-89.0895,"lo2":-89.0444,"dy":0.0017,"dx":0.0017,"nx":28,"ny":28,"refTime":"2024-02-03T03:00:00:Z","depth":"4","parameterNumber":2,"parameterNumberName":"U-component_of_CURRENTS"},"data":[0,0,0,0,0,0,0,0,0,0,0,0,0,0,0,0,0,0,0,0,0,0,0,0,0,0,0,0,0,0,0,0,0,0,0,0,0,0,0,0,0,0,0,0,0,0,0,0,0,0,0,0,0,0,0,0,0,0,0.0827,0.0827,0,0.0852,0.0852,0.0852,0.0895,0.0896,0.0897,0.0898,0.0881,0.0879,0.0878,0,0,0,0,0,0,0,0,0,0,0,0,0,0.0797,0.0797,0.0827,0.0827,0.0828,0.0852,0.0852,0.0852,0.0895,0.0896,0.0897,0.0898,0.0881,0.088,0.0878,0,0,0,0,0,0,0,0,0,0,0,0,0,0.0814,0.0797,0.0827,0.0852,0.0855,0.0852,0.0852,0.0852,0.0895,0.0896,0.0897,0.0898,0.0882,0.088,0.0878,0.0841,0,0,0.0872,0.0871,0,0,0,0,0,0,0,0,0.0813,0.0815,0.0848,0.085,0.0853,0.0872,0.0835,0.0847,0.0894,0.0879,0.0898,0.0899,0.0873,0.0872,0.0874,0.084,0.0839,0.0872,0.0871,0.087,0.087,0,0,0,0,0,0,0,0.0812,0.0814,0.0836,0.0848,0.0851,0.0856,0.086,0.0838,0.0867,0.088,0.0884,0.0887,0.0875,0.0876,0.0874,0.0839,0.0872,0.087,0.0869,0.0869,0.0898,0.09,0,0,0,0,0,0,0.0809,0.0813,0.0835,0.0837,0.0836,0.0855,0.086,0.0864,0.0869,0.0871,0.0886,0.0889,0.0878,0.0876,0.0873,0.0913,0.087,0.0868,0.0867,0.0896,0.0898,0.09,0,0,0,0,0,0,0.0808,0.0811,0.0834,0.0826,0.0829,0.0855,0.0859,0.0864,0.0886,0.0873,0.0875,0.0905,0.0879,0.0876,0.0878,0.091,0.0868,0.0866,0.0894,0.0897,0.0899,0.0939,0,0,0,0,0,0,0.0808,0.0811,0.0819,0.0826,0.083,0.0841,0.0858,0.0864,0.0884,0.0889,0.0889,0.0888,0.088,0.0881,0.0877,0.0906,0.0864,0.0891,0.0895,0.0899,0.0935,0.0943,0.0949,0,0,0,0,0,0.0806,0.0807,0.0819,0.0822,0.0839,0.0841,0.0844,0.0865,0.0884,0.089,0.0901,0.0889,0.0902,0.088,0.0874,0.0905,0.089,0.0894,0.0898,0.0932,0.0941,0.0949,0,0,0,0,0,0,0.0796,0.0812,0.0825,0.0832,0.0842,0.0849,0.0861,0.0872,0.0886,0.09,0.0891,0.089,0.0909,0.0901,0.0878,0.0929,0.0902,0.0906,0.093,0.0939,0.0946,0.0946,0.0863,0,0,0,0,0,0.0797,0.0807,0.0819,0.0826,0.0835,0.0851,0.0859,0.0874,0.0883,0.0893,0.09,0.0914,0.0918,0.0924,0.0924,0.0933,0.0933,0.0959,0.0966,0.0972,0.0972,0.0997,0.1006,0.0914,0.0914,0.0914,0,0,0.0795,0.0806,0.0812,0.0825,0.084,0.0853,0.086,0.0878,0.0898,0.0885,0.0923,0.0928,0.0926,0.0949,0.0959,0.0948,0.1002,0.0977,0.0982,0.0979,0.1003,0.1011,0.1019,0.0917,0.0917,0.0916,0,0,0.0791,0.0809,0.0817,0.0831,0.0855,0.0862,0.0871,0.0896,0.0921,0.0942,0.0952,0.0976,0.0982,0.0996,0.0999,0.1042,0.1034,0.1057,0.1092,0.1116,0.1124,0.113,0.115,0.1158,0.1065,0.1065,0.1065,0,0.0791,0.0803,0.0818,0.0833,0.0849,0.087,0.0885,0.0906,0.0933,0.0957,0.0964,0.1008,0.1006,0.1035,0.1062,0.1056,0.1068,0.1054,0.1123,0.113,0.1135,0.1154,0.1162,0.1068,0.1068,0.1067,0.1067,0,0.0789,0.0811,0.0819,0.0848,0.0864,0.088,0.0911,0.0945,0.0978,0.1,0.1049,0.1056,0.1088,0.11,0.109,0.1141,0.1136,0.1122,0.1095,0.1146,0.1164,0.1172,0.1071,0.107,0.107,0.1069,0,0,0.0756,0.0808,0.0811,0.0838,0.0877,0.0888,0.0935,0.0974,0.1015,0.1054,0.1104,0.1129,0.1152,0.1158,0.1164,0.1186,0.1239,0.1179,0.1179,0.1187,0.1298,0.1228,0.1229,0.1239,0.1241,0.1242,0.1297,0,0.0753,0.0781,0.0808,0.0846,0.0868,0.0915,0.0953,0.0999,0.1045,0.11,0.1131,0.1176,0.1169,0.1199,0.122,0.1235,0.126,0.1225,0.1257,0.1258,0.118,0.1236,0.1246,0.1302,0.1304,0.1305,0.1306,0,0.0741,0.0764,0.0796,0.0862,0.0877,0.0906,0.0982,0.1024,0.1102,0.1146,0.1202,0.1227,0.1281,0.1262,0.1317,0.1299,0.1306,0.1308,0.131,0.1233,0.1202,0.1241,0.1319,0.1318,0.1317,0.1316,0.1316,0,0.0706,0.0759,0.0786,0.0808,0.0878,0.0917,0.0962,0.1041,0.1085,0.1189,0.1236,0.1291,0.1341,0.1356,0.1375,0.1358,0.142,0.1394,0.1335,0.133,0.1356,0.1349,0.1426,0.1426,0.1426,0.1426,0.1425,0,0.0688,0.0713,0.0779,0.0796,0.0841,0.0907,0.0973,0.1036,0.1121,0.1178,0.1263,0.1312,0.1369,0.1407,0.1402,0.1398,0.1449,0.1349,0.1343,0.1374,0.1368,0.1362,0.1353,0.1428,0.1427,0.1427,0.1426,0,0.0648,0.069,0.0729,0.0803,0.0829,0.0868,0.0966,0.1012,0.1117,0.1198,0.1236,0.1345,0.1414,0.1447,0.1485,0.1437,0.1433,0.1414,0.1459,0.1452,0.1319,0.1313,0.1355,0.1354,0.1352,0.1351,0.1349,0,0.0626,0.0643,0.0717,0.0743,0.078,0.085,0.0894,0.0998,0.1047,0.1204,0.1228,0.1342,0.1405,0.141,0.1449,0.1449,0.1423,0.1411,0.1349,0.1324,0.1314,0.131,0.1306,0.1347,0.1346,0.1346,0.1345,0,0.0583,0.0618,0.0648,0.0696,0.0743,0.0795,0.087,0.0892,0.1024,0.1121,0.1203,0.1253,0.1334,0.1368,0.1388,0.1375,0.1412,0.1393,0.1396,0.1337,0.1314,0.1305,0.1303,0.134,0.1341,0.1341,0.1341,0,0.0547,0.0556,0.0601,0.064,0.0691,0.0725,0.0779,0.0846,0.0904,0.1068,0.1091,0.1223,0.1322,0.1331,0.1341,0.1338,0.1309,0.1247,0.1256,0.1263,0.1206,0.1162,0.1144,0,0,0,0,0,0.0505,0.0511,0.0542,0.0575,0.0624,0.0658,0.0749,0.081,0.0926,0.0953,0.1019,0.1091,0.1155,0.1216,0.1193,0.129,0.1302,0.1256,0.1232,0.1308,0.1315,0.1255,0,0,0,0,0,0,0.0476,0.0499,0.0514,0.0511,0.0525,0.0572,0.0631,0.0718,0.0742,0.087,0.0909,0.1009,0.1081,0.1148,0.1164,0.118,0.1139,0.1327,0.1324,0.1304,0.131,0.1316,0.1257,0,0,0,0,0]},{"header":{"parameterUnit":"m.s-1","parameterCategory":2,"la1":30.2991,"la2":30.254,"lo1":-89.0895,"lo2":-89.0444,"dy":0.0017,"dx":0.0017,"nx":28,"ny":28,"refTime":"2024-02-03T03:00:00:Z","depth":"4","parameterNumber":3,"parameterNumberName":"V-component_of_CURRENTS"},"data":[0,0,0,0,0,0,0,0,0,0,0,0,0,0,0,0,0,0,0,0,0,0,0,0,0,0,0,0,0,0,0,0,0,0,0,0,0,0,0,0,0,0,0,0,0,0,0,0,0,0,0,0,0,0,0,0,0,0,0.0059,0.0059,0,0.0059,0.0059,0.0059,0.0057,0.0057,0.0057,0.0057,0.007,0.007,0.0071,0,0,0,0,0,0,0,0,0,0,0,0,0,0.0038,0.0039,0.0059,0.0059,0.0059,0.0059,0.0059,0.0059,0.0057,0.0057,0.0057,0.0057,0.007,0.007,0.0071,0,0,0,0,0,0,0,0,0,0,0,0,0,0.0044,0.0039,0.0059,0.0058,0.0058,0.0059,0.0059,0.0059,0.0057,0.0057,0.0057,0.0056,0.0069,0.007,0.0071,0.0077,0,0,0.0073,0.0073,0,0,0,0,0,0,0,0,0.0044,0.0045,0.0058,0.0058,0.0058,0.0058,0.0056,0.0065,0.0057,0.0057,0.0057,0.0056,0.0067,0.0068,0.0068,0.0077,0.0078,0.0073,0.0073,0.0073,0.0073,0,0,0,0,0,0,0,0.0043,0.0045,0.0059,0.0058,0.0058,0.0051,0.0052,0.0058,0.0063,0.0057,0.0057,0.0057,0.0067,0.0067,0.0068,0.0078,0.0073,0.0073,0.0074,0.0074,0.0076,0.0076,0,0,0,0,0,0,0.0044,0.0045,0.0059,0.0059,0.005,0.0051,0.0052,0.0058,0.0063,0.0063,0.0057,0.0057,0.0066,0.0068,0.0069,0.0081,0.0073,0.0074,0.0074,0.0076,0.0076,0.0076,0,0,0,0,0,0,0.0044,0.0046,0.0059,0.0051,0.0052,0.0052,0.0058,0.0058,0.006,0.0062,0.0063,0.0059,0.0066,0.0068,0.0081,0.0082,0.0074,0.0075,0.0077,0.0076,0.0076,0.0104,0,0,0,0,0,0,0.0044,0.0046,0.0051,0.0052,0.0053,0.0072,0.0058,0.0058,0.006,0.006,0.0065,0.0066,0.0066,0.008,0.0081,0.0082,0.0075,0.0077,0.0076,0.0076,0.0103,0.0104,0.0105,0,0,0,0,0,0.0043,0.0061,0.0051,0.0053,0.006,0.0072,0.0073,0.0071,0.006,0.0071,0.0069,0.0066,0.0076,0.0081,0.0082,0.0084,0.0077,0.0077,0.0076,0.0103,0.0104,0.0105,0,0,0,0,0,0,0.0061,0.0062,0.0052,0.007,0.0072,0.0072,0.0083,0.0073,0.0079,0.0078,0.0073,0.0075,0.0081,0.0078,0.0082,0.0079,0.0072,0.0071,0.0091,0.0092,0.0093,0.0096,0.0076,0,0,0,0,0,0.0064,0.0075,0.0073,0.0086,0.0089,0.0082,0.0085,0.0082,0.0085,0.0087,0.0085,0.008,0.0078,0.0083,0.0081,0.0091,0.0065,0.0087,0.0088,0.0089,0.009,0.0046,0.0043,0.0073,0.0073,0.0073,0,0,0.0073,0.0076,0.0081,0.0089,0.009,0.0104,0.0085,0.0096,0.0103,0.0088,0.01,0.0087,0.008,0.0086,0.0088,0.0086,0.0067,0.0088,0.0089,0.009,0.0045,0.0042,0.0039,0.0073,0.0073,0.0073,0,0,0.0102,0.01,0.0118,0.0122,0.0125,0.0123,0.0126,0.0125,0.0122,0.0129,0.0112,0.01,0.0106,0.0096,0.0092,0.0096,0.0071,0.0092,0.0106,0.0064,0.0061,0.0058,0.0025,0.0019,0.0096,0.0096,0.0096,0,0.011,0.0133,0.0126,0.0144,0.0152,0.0134,0.0155,0.0152,0.0151,0.0147,0.0139,0.0115,0.0108,0.0104,0.0103,0.0099,0.0073,0.0107,0.0066,0.0062,0.0059,0.0025,0.0018,0.0097,0.0097,0.0097,0.0097,0,0.0153,0.0166,0.0181,0.0194,0.0203,0.022,0.0213,0.0213,0.0199,0.0187,0.0173,0.0151,0.0136,0.0126,0.012,0.0093,0.0082,0.007,0.0065,0.0058,0.0022,0.0015,0.0099,0.0098,0.0098,0.0098,0,0,0.0181,0.0205,0.0211,0.0221,0.023,0.0243,0.0254,0.0256,0.0255,0.0233,0.0224,0.0201,0.0172,0.0164,0.0141,0.0103,0.0056,0.0081,0.0078,0.0053,-0.0035,-0.003,-0.0038,0.0037,0.0035,0.0034,-0.0049,0,0.0214,0.0259,0.0263,0.0298,0.0315,0.0305,0.0319,0.0313,0.0295,0.028,0.0235,0.022,0.0192,0.018,0.0137,0.0076,0.0037,0.008,-0.0028,-0.0031,-0.0022,-0.0047,0.003,-0.0055,-0.0057,-0.0058,-0.0059,0,0.0252,0.0275,0.032,0.0342,0.0351,0.037,0.0379,0.0389,0.036,0.0342,0.0305,0.0264,0.0211,0.0183,0.0073,0.0101,0.0037,-0.0015,-0.002,-0.003,-0.0041,-0.0048,-0.0073,-0.0072,-0.0071,-0.007,-0.0069,0,0.027,0.0312,0.035,0.036,0.0385,0.0402,0.0417,0.0406,0.0413,0.0377,0.0363,0.0291,0.0253,0.016,0.0054,0.0059,-0.0076,-0.0083,-0.0139,-0.014,-0.013,-0.0126,-0.0167,-0.0167,-0.0166,-0.0166,-0.0166,0,0.0298,0.0327,0.0363,0.0382,0.0427,0.0433,0.0469,0.0466,0.0457,0.0461,0.0398,0.0369,0.0242,0.0151,0.0056,-0.0065,-0.0077,-0.0143,-0.0165,-0.0116,-0.0109,-0.0135,-0.013,-0.0169,-0.0169,-0.0168,-0.0167,0,0.0308,0.0334,0.0374,0.0416,0.0435,0.0467,0.0513,0.0528,0.0519,0.0517,0.0506,0.0415,0.0295,0.0167,0.0009,-0.0057,-0.0175,-0.0214,-0.0149,-0.0164,-0.0211,-0.0203,-0.0287,-0.0288,-0.0288,-0.0289,-0.0289,0,0.032,0.0341,0.0402,0.0432,0.0456,0.0508,0.0541,0.0558,0.0571,0.0543,0.0536,0.0425,0.0351,0.0135,-0.0,-0.0184,-0.0205,-0.0256,-0.0239,-0.0213,-0.0225,-0.0217,-0.0209,-0.029,-0.029,-0.029,-0.029,0,0.0332,0.0353,0.0388,0.0453,0.0499,0.0556,0.0603,0.0614,0.0627,0.0616,0.0553,0.044,0.0303,0.0133,-0.001,-0.0139,-0.0218,-0.0262,-0.0262,-0.0246,-0.0217,-0.0227,-0.0219,-0.0292,-0.0292,-0.0292,-0.0291,0,0.0341,0.0366,0.0413,0.047,0.053,0.0583,0.0611,0.0626,0.064,0.0607,0.0582,0.0439,0.0353,0.0155,0.0023,-0.0105,-0.0135,-0.016,-0.0165,-0.0165,-0.0103,-0.0046,-0.0093,0,0,0,0,0,0.0346,0.0375,0.0426,0.0489,0.0547,0.0586,0.064,0.066,0.0668,0.0631,0.061,0.0484,0.028,0.0185,0.0056,0.0006,-0.0161,-0.0147,-0.0192,-0.0302,-0.03,-0.0247,0,0,0,0,0,0,0.0348,0.0393,0.0421,0.0493,0.0536,0.0604,0.0641,0.065,0.063,0.0616,0.0503,0.0459,0.0252,0.0347,0.0052,0.0013,-0.0029,-0.0244,-0.0246,-0.0303,-0.0301,-0.03,-0.0245,0,0,0,0,0]}]]